Year,Month,Day,Hour,Minute,Value (Times are PST for temperature in C)
2013,07,24,00,00,10.90
2013,07,24,00,01,10.80
2013,07,24,00,02,10.80
2013,07,24,00,03,10.80
2013,07,24,00,04,10.80
2013,07,24,00,05,10.80
2013,07,24,00,06,10.80
2013,07,24,00,07,10.80
2013,07,24,00,08,10.80
2013,07,24,00,09,10.80
2013,07,24,00,10,10.80
2013,07,24,00,11,10.80
2013,07,24,00,12,10.80
2013,07,24,00,13,10.80
2013,07,24,00,14,10.80
2013,07,24,00,15,10.80
2013,07,24,00,16,10.80
2013,07,24,00,17,10.80
2013,07,24,00,18,10.80
2013,07,24,00,19,10.80
2013,07,24,00,20,10.80
2013,07,24,00,21,10.80
2013,07,24,00,22,10.80
2013,07,24,00,23,10.80
2013,07,24,00,24,10.80
2013,07,24,00,25,10.80
2013,07,24,00,26,10.80
2013,07,24,00,27,10.80
2013,07,24,00,28,10.70
2013,07,24,00,29,10.70
2013,07,24,00,30,10.70
2013,07,24,00,31,10.70
2013,07,24,00,32,10.80
2013,07,24,00,33,10.80
2013,07,24,00,34,10.80
2013,07,24,00,35,10.80
2013,07,24,00,36,10.80
2013,07,24,00,37,10.80
2013,07,24,00,38,10.90
2013,07,24,00,39,10.90
2013,07,24,00,40,10.80
2013,07,24,00,41,10.80
2013,07,24,00,42,10.80
2013,07,24,00,43,10.90
2013,07,24,00,44,10.90
2013,07,24,00,45,10.90
2013,07,24,00,46,10.90
2013,07,24,00,47,10.90
2013,07,24,00,48,10.90
2013,07,24,00,49,10.90
2013,07,24,00,50,10.90
2013,07,24,00,51,10.90
2013,07,24,00,52,10.90
2013,07,24,00,53,10.90
2013,07,24,00,54,11.00
2013,07,24,00,55,11.00
2013,07,24,00,56,11.00
2013,07,24,00,57,11.10
2013,07,24,00,58,11.10
2013,07,24,00,59,11.10
2013,07,24,01,00,11.10
2013,07,24,01,01,11.10
2013,07,24,01,02,11.10
2013,07,24,01,03,11.10
2013,07,24,01,04,11.10
2013,07,24,01,05,11.20
2013,07,24,01,06,11.20
2013,07,24,01,07,11.20
2013,07,24,01,08,11.20
2013,07,24,01,09,11.20
2013,07,24,01,10,11.20
2013,07,24,01,11,11.20
2013,07,24,01,12,11.20
2013,07,24,01,13,11.20
2013,07,24,01,14,11.20
2013,07,24,01,15,11.20
2013,07,24,01,16,11.30
2013,07,24,01,17,11.30
2013,07,24,01,18,11.30
2013,07,24,01,19,11.30
2013,07,24,01,20,11.30
2013,07,24,01,21,11.30
2013,07,24,01,22,11.30
2013,07,24,01,23,11.30
2013,07,24,01,24,11.30
2013,07,24,01,25,11.30
2013,07,24,01,26,11.40
2013,07,24,01,27,11.40
2013,07,24,01,28,11.40
2013,07,24,01,29,11.40
2013,07,24,01,30,11.40
2013,07,24,01,31,11.40
2013,07,24,01,32,11.40
2013,07,24,01,33,11.40
2013,07,24,01,34,11.40
2013,07,24,01,35,11.40
2013,07,24,01,36,11.50
2013,07,24,01,37,11.50
2013,07,24,01,38,11.50
2013,07,24,01,39,11.50
2013,07,24,01,40,11.50
2013,07,24,01,41,11.50
2013,07,24,01,42,11.50
2013,07,24,01,43,11.50
2013,07,24,01,44,11.50
2013,07,24,01,45,11.50
2013,07,24,01,46,11.50
2013,07,24,01,47,11.50
2013,07,24,01,48,11.50
2013,07,24,01,49,11.50
2013,07,24,01,50,11.50
2013,07,24,01,51,11.50
2013,07,24,01,52,11.50
2013,07,24,01,53,11.50
2013,07,24,01,54,11.50
2013,07,24,01,55,11.50
2013,07,24,01,56,11.50
2013,07,24,01,57,11.50
2013,07,24,01,58,11.50
2013,07,24,01,59,11.50
2013,07,24,02,00,11.50
2013,07,24,02,01,11.50
2013,07,24,02,02,11.50
2013,07,24,02,03,11.40
2013,07,24,02,04,11.40
2013,07,24,02,05,11.40
2013,07,24,02,06,11.40
2013,07,24,02,07,11.40
2013,07,24,02,08,11.40
2013,07,24,02,09,11.40
2013,07,24,02,10,11.40
2013,07,24,02,11,11.40
2013,07,24,02,12,11.40
2013,07,24,02,13,11.40
2013,07,24,02,14,11.30
2013,07,24,02,15,11.30
2013,07,24,02,16,11.30
2013,07,24,02,17,11.30
2013,07,24,02,18,11.30
2013,07,24,02,19,11.30
2013,07,24,02,20,11.30
2013,07,24,02,21,11.30
2013,07,24,02,22,11.30
2013,07,24,02,23,11.30
2013,07,24,02,24,11.20
2013,07,24,02,25,11.20
2013,07,24,02,26,11.20
2013,07,24,02,27,11.20
2013,07,24,02,28,11.20
2013,07,24,02,29,11.20
2013,07,24,02,30,11.20
2013,07,24,02,31,11.20
2013,07,24,02,32,11.20
2013,07,24,02,33,11.20
2013,07,24,02,34,11.20
2013,07,24,02,35,11.20
2013,07,24,02,36,11.20
2013,07,24,02,37,11.10
2013,07,24,02,38,11.10
2013,07,24,02,39,11.10
2013,07,24,02,40,11.10
2013,07,24,02,41,11.10
2013,07,24,02,42,11.10
2013,07,24,02,43,11.10
2013,07,24,02,44,11.10
2013,07,24,02,45,11.10
2013,07,24,02,46,11.10
2013,07,24,02,47,11.10
2013,07,24,02,48,11.10
2013,07,24,02,49,11.10
2013,07,24,02,50,11.10
2013,07,24,02,51,11.10
2013,07,24,02,52,11.20
2013,07,24,02,53,11.10
2013,07,24,02,54,11.20
2013,07,24,02,55,11.20
2013,07,24,02,56,11.20
2013,07,24,02,57,11.20
2013,07,24,02,58,11.20
2013,07,24,02,59,11.20
2013,07,24,03,00,11.20
2013,07,24,03,01,11.20
2013,07,24,03,02,11.20
2013,07,24,03,03,11.20
2013,07,24,03,04,11.10
2013,07,24,03,05,11.10
2013,07,24,03,06,11.10
2013,07,24,03,07,11.10
2013,07,24,03,08,11.10
2013,07,24,03,09,11.10
2013,07,24,03,10,11.10
2013,07,24,03,11,11.10
2013,07,24,03,12,11.10
2013,07,24,03,13,11.10
2013,07,24,03,14,11.10
2013,07,24,03,15,11.10
2013,07,24,03,16,11.10
2013,07,24,03,17,11.10
2013,07,24,03,18,11.10
2013,07,24,03,19,11.10
2013,07,24,03,20,11.10
2013,07,24,03,21,11.10
2013,07,24,03,22,11.00
2013,07,24,03,23,11.00
2013,07,24,03,24,11.00
2013,07,24,03,25,11.00
2013,07,24,03,26,11.00
2013,07,24,03,27,11.00
2013,07,24,03,28,11.00
2013,07,24,03,29,11.00
2013,07,24,03,30,10.90
2013,07,24,03,31,10.90
2013,07,24,03,32,10.90
2013,07,24,03,33,10.90
2013,07,24,03,34,10.90
2013,07,24,03,35,10.90
2013,07,24,03,36,10.90
2013,07,24,03,37,10.90
2013,07,24,03,38,10.90
2013,07,24,03,39,10.80
2013,07,24,03,40,10.80
2013,07,24,03,41,10.80
2013,07,24,03,42,10.80
2013,07,24,03,43,10.80
2013,07,24,03,44,10.80
2013,07,24,03,45,10.80
2013,07,24,03,46,10.80
2013,07,24,03,47,10.80
2013,07,24,03,48,10.80
2013,07,24,03,49,10.80
2013,07,24,03,50,10.80
2013,07,24,03,51,10.80
2013,07,24,03,52,10.80
2013,07,24,03,53,10.80
2013,07,24,03,54,10.80
2013,07,24,03,55,10.80
2013,07,24,03,56,10.80
2013,07,24,03,57,10.80
2013,07,24,03,58,10.80
2013,07,24,03,59,10.80
2013,07,24,04,00,10.80
2013,07,24,04,01,10.80
2013,07,24,04,02,10.80
2013,07,24,04,03,10.80
2013,07,24,04,04,10.80
2013,07,24,04,05,10.80
2013,07,24,04,06,10.80
2013,07,24,04,07,10.80
2013,07,24,04,08,10.80
2013,07,24,04,09,10.80
2013,07,24,04,10,10.80
2013,07,24,04,11,10.80
2013,07,24,04,12,10.80
2013,07,24,04,13,10.80
2013,07,24,04,14,10.80
2013,07,24,04,15,10.80
2013,07,24,04,16,10.80
2013,07,24,04,17,10.80
2013,07,24,04,18,10.80
2013,07,24,04,19,10.80
2013,07,24,04,20,10.80
2013,07,24,04,21,10.80
2013,07,24,04,22,10.80
2013,07,24,04,23,10.80
2013,07,24,04,24,10.80
2013,07,24,04,25,10.80
2013,07,24,04,26,10.80
2013,07,24,04,27,10.80
2013,07,24,04,28,10.80
2013,07,24,04,29,10.80
2013,07,24,04,30,10.80
2013,07,24,04,31,10.80
2013,07,24,04,32,10.80
2013,07,24,04,33,10.80
2013,07,24,04,34,10.80
2013,07,24,04,35,10.80
2013,07,24,04,36,10.80
2013,07,24,04,37,10.80
2013,07,24,04,38,10.80
2013,07,24,04,39,10.80
2013,07,24,04,40,10.80
2013,07,24,04,41,10.80
2013,07,24,04,42,10.80
2013,07,24,04,43,10.80
2013,07,24,04,44,10.80
2013,07,24,04,45,10.80
2013,07,24,04,46,10.80
2013,07,24,04,47,10.80
2013,07,24,04,48,10.80
2013,07,24,04,49,10.80
2013,07,24,04,50,10.80
2013,07,24,04,51,10.80
2013,07,24,04,52,10.80
2013,07,24,04,53,10.80
2013,07,24,04,54,10.80
2013,07,24,04,55,10.80
2013,07,24,04,56,10.70
2013,07,24,04,57,10.70
2013,07,24,04,58,10.70
2013,07,24,04,59,10.70
2013,07,24,05,00,10.70
2013,07,24,05,01,10.70
2013,07,24,05,02,10.70
2013,07,24,05,03,10.70
2013,07,24,05,04,10.70
2013,07,24,05,05,10.70
2013,07,24,05,06,10.70
2013,07,24,05,07,10.70
2013,07,24,05,08,10.70
2013,07,24,05,09,10.70
2013,07,24,05,10,10.70
2013,07,24,05,11,10.70
2013,07,24,05,12,10.70
2013,07,24,05,13,10.70
2013,07,24,05,14,10.60
2013,07,24,05,15,10.60
2013,07,24,05,16,10.60
2013,07,24,05,17,10.60
2013,07,24,05,18,10.60
2013,07,24,05,19,10.60
2013,07,24,05,20,10.60
2013,07,24,05,21,10.60
2013,07,24,05,22,10.60
2013,07,24,05,23,10.60
2013,07,24,05,24,10.60
2013,07,24,05,25,10.50
2013,07,24,05,26,10.50
2013,07,24,05,27,10.50
2013,07,24,05,28,10.50
2013,07,24,05,29,10.50
2013,07,24,05,30,10.50
2013,07,24,05,31,10.50
2013,07,24,05,32,10.50
2013,07,24,05,33,10.50
2013,07,24,05,34,10.50
2013,07,24,05,35,10.40
2013,07,24,05,36,10.40
2013,07,24,05,37,10.40
2013,07,24,05,38,10.40
2013,07,24,05,39,10.40
2013,07,24,05,40,10.40
2013,07,24,05,41,10.40
2013,07,24,05,42,10.40
2013,07,24,05,43,10.40
2013,07,24,05,44,10.40
2013,07,24,05,45,10.40
2013,07,24,05,46,10.40
2013,07,24,05,47,10.40
2013,07,24,05,48,10.40
2013,07,24,05,49,10.40
2013,07,24,05,50,10.40
2013,07,24,05,51,10.40
2013,07,24,05,52,10.40
2013,07,24,05,53,10.40
2013,07,24,05,54,10.40
2013,07,24,05,55,10.40
2013,07,24,05,56,10.40
2013,07,24,05,57,10.40
2013,07,24,05,58,10.40
2013,07,24,05,59,10.40
2013,07,24,06,00,10.40
2013,07,24,06,01,10.40
2013,07,24,06,02,10.40
2013,07,24,06,03,10.40
2013,07,24,06,04,10.40
2013,07,24,06,05,10.40
2013,07,24,06,06,10.40
2013,07,24,06,07,10.40
2013,07,24,06,08,10.40
2013,07,24,06,09,10.40
2013,07,24,06,10,10.40
2013,07,24,06,11,10.40
2013,07,24,06,12,10.40
2013,07,24,06,13,10.40
2013,07,24,06,14,10.50
2013,07,24,06,15,10.50
2013,07,24,06,16,10.50
2013,07,24,06,17,10.50
2013,07,24,06,18,10.50
2013,07,24,06,19,10.50
2013,07,24,06,20,10.50
2013,07,24,06,21,10.50
2013,07,24,06,22,10.50
2013,07,24,06,23,10.50
2013,07,24,06,24,10.50
2013,07,24,06,25,10.40
2013,07,24,06,26,10.40
2013,07,24,06,27,10.40
2013,07,24,06,28,10.40
2013,07,24,06,29,10.40
2013,07,24,06,30,10.50
2013,07,24,06,31,10.50
2013,07,24,06,32,10.50
2013,07,24,06,33,10.50
2013,07,24,06,34,10.50
2013,07,24,06,35,10.50
2013,07,24,06,36,10.50
2013,07,24,06,37,10.50
2013,07,24,06,38,10.40
2013,07,24,06,39,10.40
2013,07,24,06,40,10.40
2013,07,24,06,41,10.40
2013,07,24,06,42,10.40
2013,07,24,06,43,10.50
2013,07,24,06,44,10.50
2013,07,24,06,45,10.50
2013,07,24,06,46,10.50
2013,07,24,06,47,10.50
2013,07,24,06,48,10.50
2013,07,24,06,49,10.50
2013,07,24,06,50,10.60
2013,07,24,06,51,10.60
2013,07,24,06,52,10.60
2013,07,24,06,53,10.60
2013,07,24,06,54,10.60
2013,07,24,06,55,10.60
2013,07,24,06,56,10.60
2013,07,24,06,57,10.60
2013,07,24,06,58,10.60
2013,07,24,06,59,10.60
2013,07,24,07,00,10.70
2013,07,24,07,01,10.70
2013,07,24,07,02,10.70
2013,07,24,07,03,10.70
2013,07,24,07,04,10.70
2013,07,24,07,05,10.70
2013,07,24,07,06,10.70
2013,07,24,07,07,10.70
2013,07,24,07,08,10.70
2013,07,24,07,09,10.80
2013,07,24,07,10,10.80
2013,07,24,07,11,10.80
2013,07,24,07,12,10.80
2013,07,24,07,13,10.80
2013,07,24,07,14,10.90
2013,07,24,07,15,10.90
2013,07,24,07,16,10.80
2013,07,24,07,17,10.80
2013,07,24,07,18,10.80
2013,07,24,07,19,10.80
2013,07,24,07,20,10.80
2013,07,24,07,21,10.80
2013,07,24,07,22,10.80
2013,07,24,07,23,10.80
2013,07,24,07,24,10.80
2013,07,24,07,25,10.80
2013,07,24,07,26,10.80
2013,07,24,07,27,10.90
2013,07,24,07,28,10.90
2013,07,24,07,29,10.90
2013,07,24,07,30,10.90
2013,07,24,07,31,11.00
2013,07,24,07,32,11.00
2013,07,24,07,33,11.00
2013,07,24,07,34,11.10
2013,07,24,07,35,11.10
2013,07,24,07,36,11.10
2013,07,24,07,37,11.10
2013,07,24,07,38,11.10
2013,07,24,07,39,11.10
2013,07,24,07,40,11.10
2013,07,24,07,41,11.10
2013,07,24,07,42,11.10
2013,07,24,07,43,11.10
2013,07,24,07,44,11.10
2013,07,24,07,45,11.10
2013,07,24,07,46,11.10
2013,07,24,07,47,11.10
2013,07,24,07,48,11.10
2013,07,24,07,49,11.10
2013,07,24,07,50,11.10
2013,07,24,07,51,11.10
2013,07,24,07,52,11.20
2013,07,24,07,53,11.20
2013,07,24,07,54,11.20
2013,07,24,07,55,11.20
2013,07,24,07,56,11.20
2013,07,24,07,57,11.20
2013,07,24,07,58,11.20
2013,07,24,07,59,11.20
2013,07,24,08,00,11.20
2013,07,24,08,01,11.20
2013,07,24,08,02,11.30
2013,07,24,08,03,11.30
2013,07,24,08,04,11.30
2013,07,24,08,05,11.30
2013,07,24,08,06,11.30
2013,07,24,08,07,11.30
2013,07,24,08,08,11.30
2013,07,24,08,09,11.30
2013,07,24,08,10,11.30
2013,07,24,08,11,11.30
2013,07,24,08,12,11.30
2013,07,24,08,13,11.30
2013,07,24,08,14,11.30
2013,07,24,08,15,11.30
2013,07,24,08,16,11.30
2013,07,24,08,17,11.40
2013,07,24,08,18,11.40
2013,07,24,08,19,11.40
2013,07,24,08,20,11.50
2013,07,24,08,21,11.50
2013,07,24,08,22,11.60
2013,07,24,08,23,11.60
2013,07,24,08,24,11.60
2013,07,24,08,25,11.60
2013,07,24,08,26,11.70
2013,07,24,08,27,11.70
2013,07,24,08,28,11.70
2013,07,24,08,29,11.70
2013,07,24,08,30,11.70
2013,07,24,08,31,11.70
2013,07,24,08,32,11.70
2013,07,24,08,33,11.80
2013,07,24,08,34,11.80
2013,07,24,08,35,11.90
2013,07,24,08,36,11.90
2013,07,24,08,37,11.80
2013,07,24,08,38,11.80
2013,07,24,08,39,11.90
2013,07,24,08,40,11.90
2013,07,24,08,41,11.80
2013,07,24,08,42,11.90
2013,07,24,08,43,11.90
2013,07,24,08,44,11.90
2013,07,24,08,45,11.90
2013,07,24,08,46,12.00
2013,07,24,08,47,12.00
2013,07,24,08,48,12.10
2013,07,24,08,49,12.10
2013,07,24,08,50,12.20
2013,07,24,08,51,12.30
2013,07,24,08,52,12.40
2013,07,24,08,53,12.50
2013,07,24,08,54,12.60
2013,07,24,08,55,12.70
2013,07,24,08,56,12.80
2013,07,24,08,57,12.90
2013,07,24,08,58,13.00
2013,07,24,08,59,13.20
2013,07,24,09,00,13.20
2013,07,24,09,01,13.20
2013,07,24,09,02,13.20
2013,07,24,09,03,13.20
2013,07,24,09,04,13.30
2013,07,24,09,05,13.30
2013,07,24,09,06,13.30
2013,07,24,09,07,13.40
2013,07,24,09,08,13.50
2013,07,24,09,09,13.60
2013,07,24,09,10,13.70
2013,07,24,09,11,13.80
2013,07,24,09,12,13.80
2013,07,24,09,13,13.80
2013,07,24,09,14,13.80
2013,07,24,09,15,13.80
2013,07,24,09,16,13.70
2013,07,24,09,17,13.70
2013,07,24,09,18,13.70
2013,07,24,09,19,13.70
2013,07,24,09,20,13.70
2013,07,24,09,21,13.70
2013,07,24,09,22,13.80
2013,07,24,09,23,13.80
2013,07,24,09,24,13.80
2013,07,24,09,25,13.90
2013,07,24,09,26,13.90
2013,07,24,09,27,14.00
2013,07,24,09,28,14.00
2013,07,24,09,29,14.10
2013,07,24,09,30,14.10
2013,07,24,09,31,14.10
2013,07,24,09,32,14.20
2013,07,24,09,33,14.30
2013,07,24,09,34,14.40
2013,07,24,09,35,14.50
2013,07,24,09,36,14.50
2013,07,24,09,37,14.40
2013,07,24,09,38,14.20
2013,07,24,09,39,14.10
2013,07,24,09,40,14.10
2013,07,24,09,41,14.10
2013,07,24,09,42,14.20
2013,07,24,09,43,14.30
2013,07,24,09,44,14.40
2013,07,24,09,45,14.40
2013,07,24,09,46,14.40
2013,07,24,09,47,14.50
2013,07,24,09,48,14.50
2013,07,24,09,49,14.60
2013,07,24,09,50,14.70
2013,07,24,09,51,14.80
2013,07,24,09,52,14.90
2013,07,24,09,53,15.00
2013,07,24,09,54,15.10
2013,07,24,09,55,15.10
2013,07,24,09,56,15.10
2013,07,24,09,57,15.20
2013,07,24,09,58,15.30
2013,07,24,09,59,15.30
2013,07,24,10,00,15.30
2013,07,24,10,01,15.40
2013,07,24,10,02,15.50
2013,07,24,10,03,15.60
2013,07,24,10,04,15.60
2013,07,24,10,05,15.60
2013,07,24,10,06,15.70
2013,07,24,10,07,15.70
2013,07,24,10,08,15.70
2013,07,24,10,09,15.70
2013,07,24,10,10,15.70
2013,07,24,10,11,15.70
2013,07,24,10,12,15.70
2013,07,24,10,13,15.60
2013,07,24,10,14,15.60
2013,07,24,10,15,15.50
2013,07,24,10,16,15.50
2013,07,24,10,17,15.40
2013,07,24,10,18,15.30
2013,07,24,10,19,15.20
2013,07,24,10,20,15.20
2013,07,24,10,21,15.10
2013,07,24,10,22,15.20
2013,07,24,10,23,15.20
2013,07,24,10,24,15.30
2013,07,24,10,25,15.40
2013,07,24,10,26,15.50
2013,07,24,10,27,15.60
2013,07,24,10,28,15.60
2013,07,24,10,29,15.70
2013,07,24,10,30,15.60
2013,07,24,10,31,15.60
2013,07,24,10,32,15.50
2013,07,24,10,33,15.50
2013,07,24,10,34,15.50
2013,07,24,10,35,15.40
2013,07,24,10,36,15.50
2013,07,24,10,37,15.50
2013,07,24,10,38,15.60
2013,07,24,10,39,15.60
2013,07,24,10,40,15.70
2013,07,24,10,41,15.70
2013,07,24,10,42,15.70
2013,07,24,10,43,15.70
2013,07,24,10,44,15.60
2013,07,24,10,45,15.70
2013,07,24,10,46,15.80
2013,07,24,10,47,15.90
2013,07,24,10,48,16.00
2013,07,24,10,49,16.20
2013,07,24,10,50,16.40
2013,07,24,10,51,16.60
2013,07,24,10,52,16.70
2013,07,24,10,53,16.90
2013,07,24,10,54,17.00
2013,07,24,10,55,17.10
2013,07,24,10,56,17.10
2013,07,24,10,57,17.10
2013,07,24,10,58,17.10
2013,07,24,10,59,17.20
2013,07,24,11,00,17.30
2013,07,24,11,01,17.50
2013,07,24,11,02,17.70
2013,07,24,11,03,17.80
2013,07,24,11,04,17.90
2013,07,24,11,05,17.80
2013,07,24,11,06,17.70
2013,07,24,11,07,17.70
2013,07,24,11,08,17.70
2013,07,24,11,09,17.80
2013,07,24,11,10,17.60
2013,07,24,11,11,17.50
2013,07,24,11,12,17.30
2013,07,24,11,13,17.10
2013,07,24,11,14,16.90
2013,07,24,11,15,16.90
2013,07,24,11,16,16.80
2013,07,24,11,17,16.70
2013,07,24,11,18,16.70
2013,07,24,11,19,16.70
2013,07,24,11,20,16.60
2013,07,24,11,21,16.50
2013,07,24,11,22,16.40
2013,07,24,11,23,16.40
2013,07,24,11,24,16.30
2013,07,24,11,25,16.30
2013,07,24,11,26,16.20
2013,07,24,11,27,16.00
2013,07,24,11,28,16.00
2013,07,24,11,29,16.00
2013,07,24,11,30,16.00
2013,07,24,11,31,16.00
2013,07,24,11,32,16.20
2013,07,24,11,33,16.20
2013,07,24,11,34,16.20
2013,07,24,11,35,16.20
2013,07,24,11,36,16.30
2013,07,24,11,37,16.30
2013,07,24,11,38,16.40
2013,07,24,11,39,16.40
2013,07,24,11,40,16.30
2013,07,24,11,41,16.40
2013,07,24,11,42,16.50
2013,07,24,11,43,16.60
2013,07,24,11,44,16.70
2013,07,24,11,45,16.80
2013,07,24,11,46,16.90
2013,07,24,11,47,17.00
2013,07,24,11,48,17.00
2013,07,24,11,49,16.90
2013,07,24,11,50,17.00
2013,07,24,11,51,17.00
2013,07,24,11,52,17.00
2013,07,24,11,53,17.00
2013,07,24,11,54,17.10
2013,07,24,11,55,17.20
2013,07,24,11,56,17.20
2013,07,24,11,57,17.20
2013,07,24,11,58,17.20
2013,07,24,11,59,17.20
2013,07,24,12,00,17.10
2013,07,24,12,01,17.00
2013,07,24,12,02,17.10
2013,07,24,12,03,17.10
2013,07,24,12,04,17.10
2013,07,24,12,05,17.00
2013,07,24,12,06,17.00
2013,07,24,12,07,17.10
2013,07,24,12,08,17.10
2013,07,24,12,09,17.20
2013,07,24,12,10,17.20
2013,07,24,12,11,17.30
2013,07,24,12,12,17.20
2013,07,24,12,13,17.10
2013,07,24,12,14,17.00
2013,07,24,12,15,17.00
2013,07,24,12,16,16.80
2013,07,24,12,17,16.70
2013,07,24,12,18,16.60
2013,07,24,12,19,16.60
2013,07,24,12,20,16.60
2013,07,24,12,21,16.70
2013,07,24,12,22,16.70
2013,07,24,12,23,16.60
2013,07,24,12,24,16.60
2013,07,24,12,25,16.50
2013,07,24,12,26,16.30
2013,07,24,12,27,16.20
2013,07,24,12,28,16.10
2013,07,24,12,29,16.00
2013,07,24,12,30,15.90
2013,07,24,12,31,15.80
2013,07,24,12,32,15.60
2013,07,24,12,33,15.50
2013,07,24,12,34,15.40
2013,07,24,12,35,15.40
2013,07,24,12,36,15.40
2013,07,24,12,37,15.50
2013,07,24,12,38,15.60
2013,07,24,12,39,15.70
2013,07,24,12,40,15.70
2013,07,24,12,41,15.70
2013,07,24,12,42,15.70
2013,07,24,12,43,15.80
2013,07,24,12,44,15.80
2013,07,24,12,45,15.90
2013,07,24,12,46,15.70
2013,07,24,12,47,15.50
2013,07,24,12,48,15.20
2013,07,24,12,49,15.20
2013,07,24,12,50,15.00
2013,07,24,12,51,15.00
2013,07,24,12,52,15.00
2013,07,24,12,53,14.90
2013,07,24,12,54,14.80
2013,07,24,12,55,14.80
2013,07,24,12,56,14.90
2013,07,24,12,57,15.00
2013,07,24,12,58,15.10
2013,07,24,12,59,15.30
2013,07,24,13,00,15.40
2013,07,24,13,01,15.40
2013,07,24,13,02,15.40
2013,07,24,13,03,15.40
2013,07,24,13,04,15.40
2013,07,24,13,05,15.50
2013,07,24,13,06,15.50
2013,07,24,13,07,15.50
2013,07,24,13,08,15.60
2013,07,24,13,09,15.70
2013,07,24,13,10,15.70
2013,07,24,13,11,15.80
2013,07,24,13,12,15.80
2013,07,24,13,13,15.80
2013,07,24,13,14,15.70
2013,07,24,13,15,15.50
2013,07,24,13,16,15.40
2013,07,24,13,17,15.20
2013,07,24,13,18,15.10
2013,07,24,13,19,15.20
2013,07,24,13,20,15.20
2013,07,24,13,21,15.30
2013,07,24,13,22,15.30
2013,07,24,13,23,15.30
2013,07,24,13,24,15.20
2013,07,24,13,25,15.20
2013,07,24,13,26,15.20
2013,07,24,13,27,15.20
2013,07,24,13,28,15.20
2013,07,24,13,29,15.20
2013,07,24,13,30,15.10
2013,07,24,13,31,15.00
2013,07,24,13,32,15.00
2013,07,24,13,33,15.00
2013,07,24,13,34,15.10
2013,07,24,13,35,15.20
2013,07,24,13,36,15.20
2013,07,24,13,37,15.20
2013,07,24,13,38,15.20
2013,07,24,13,39,15.20
2013,07,24,13,40,15.20
2013,07,24,13,41,15.20
2013,07,24,13,42,15.10
2013,07,24,13,43,15.00
2013,07,24,13,44,14.90
2013,07,24,13,45,14.80
2013,07,24,13,46,14.80
2013,07,24,13,47,14.90
2013,07,24,13,48,15.00
2013,07,24,13,49,15.10
2013,07,24,13,50,15.20
2013,07,24,13,51,15.10
2013,07,24,13,52,15.10
2013,07,24,13,53,15.00
2013,07,24,13,54,15.00
2013,07,24,13,55,15.00
2013,07,24,13,56,14.90
2013,07,24,13,57,14.90
2013,07,24,13,58,14.90
2013,07,24,13,59,14.80
2013,07,24,14,00,14.70
2013,07,24,14,01,14.70
2013,07,24,14,02,14.80
2013,07,24,14,03,14.90
2013,07,24,14,04,14.90
2013,07,24,14,05,15.00
2013,07,24,14,06,15.10
2013,07,24,14,07,15.20
2013,07,24,14,08,15.40
2013,07,24,14,09,15.40
2013,07,24,14,10,15.50
2013,07,24,14,11,15.60
2013,07,24,14,12,15.70
2013,07,24,14,13,15.80
2013,07,24,14,14,15.90
2013,07,24,14,15,16.00
2013,07,24,14,16,16.10
2013,07,24,14,17,16.20
2013,07,24,14,18,16.40
2013,07,24,14,19,16.50
2013,07,24,14,20,16.70
2013,07,24,14,21,16.80
2013,07,24,14,22,16.90
2013,07,24,14,23,16.90
2013,07,24,14,24,16.90
2013,07,24,14,25,16.90
2013,07,24,14,26,17.00
2013,07,24,14,27,17.10
2013,07,24,14,28,16.90
2013,07,24,14,29,16.60
2013,07,24,14,30,16.10
2013,07,24,14,31,15.80
2013,07,24,14,32,15.50
2013,07,24,14,33,15.30
2013,07,24,14,34,15.30
2013,07,24,14,35,15.30
2013,07,24,14,36,15.30
2013,07,24,14,37,15.50
2013,07,24,14,38,15.70
2013,07,24,14,39,15.90
2013,07,24,14,40,16.00
2013,07,24,14,41,16.10
2013,07,24,14,42,16.10
2013,07,24,14,43,16.10
2013,07,24,14,44,16.10
2013,07,24,14,45,16.30
2013,07,24,14,46,16.50
2013,07,24,14,47,16.60
2013,07,24,14,48,16.70
2013,07,24,14,49,16.90
2013,07,24,14,50,17.10
2013,07,24,14,51,17.30
2013,07,24,14,52,17.60
2013,07,24,14,53,17.80
2013,07,24,14,54,18.10
2013,07,24,14,55,18.30
2013,07,24,14,56,18.50
2013,07,24,14,57,18.60
2013,07,24,14,58,18.80
2013,07,24,14,59,18.90
2013,07,24,15,00,19.00
2013,07,24,15,01,19.00
2013,07,24,15,02,19.00
2013,07,24,15,03,19.00
2013,07,24,15,04,19.00
2013,07,24,15,05,19.00
2013,07,24,15,06,18.90
2013,07,24,15,07,18.90
2013,07,24,15,08,19.00
2013,07,24,15,09,19.10
2013,07,24,15,10,19.20
2013,07,24,15,11,19.30
2013,07,24,15,12,19.40
2013,07,24,15,13,19.40
2013,07,24,15,14,19.30
2013,07,24,15,15,19.20
2013,07,24,15,16,19.20
2013,07,24,15,17,19.20
2013,07,24,15,18,19.20
2013,07,24,15,19,19.20
2013,07,24,15,20,19.20
2013,07,24,15,21,19.30
2013,07,24,15,22,19.40
2013,07,24,15,23,19.50
2013,07,24,15,24,19.70
2013,07,24,15,25,19.90
2013,07,24,15,26,20.10
2013,07,24,15,27,20.30
2013,07,24,15,28,20.50
2013,07,24,15,29,20.60
2013,07,24,15,30,20.60
2013,07,24,15,31,20.60
2013,07,24,15,32,20.70
2013,07,24,15,33,20.80
2013,07,24,15,34,20.90
2013,07,24,15,35,21.20
2013,07,24,15,36,21.50
2013,07,24,15,37,21.90
2013,07,24,15,38,22.30
2013,07,24,15,39,22.70
2013,07,24,15,40,23.00
2013,07,24,15,41,23.40
2013,07,24,15,42,23.70
2013,07,24,15,43,23.90
2013,07,24,15,44,24.00
2013,07,24,15,45,24.10
2013,07,24,15,46,24.20
2013,07,24,15,47,24.20
2013,07,24,15,48,24.30
2013,07,24,15,49,24.40
2013,07,24,15,50,24.50
2013,07,24,15,51,24.50
2013,07,24,15,52,24.60
2013,07,24,15,53,24.60
2013,07,24,15,54,24.60
2013,07,24,15,55,24.60
2013,07,24,15,56,24.60
2013,07,24,15,57,24.60
2013,07,24,15,58,24.60
2013,07,24,15,59,24.70
2013,07,24,16,00,24.70
2013,07,24,16,01,24.80
2013,07,24,16,02,24.80
2013,07,24,16,03,24.90
2013,07,24,16,04,24.90
2013,07,24,16,05,24.90
2013,07,24,16,06,24.80
2013,07,24,16,07,24.80
2013,07,24,16,08,24.80
2013,07,24,16,09,24.70
2013,07,24,16,10,24.70
2013,07,24,16,11,24.70
2013,07,24,16,12,24.70
2013,07,24,16,13,24.60
2013,07,24,16,14,24.70
2013,07,24,16,15,24.70
2013,07,24,16,16,24.70
2013,07,24,16,17,24.70
2013,07,24,16,18,24.70
2013,07,24,16,19,24.70
2013,07,24,16,20,24.70
2013,07,24,16,21,24.70
2013,07,24,16,22,24.80
2013,07,24,16,23,24.80
2013,07,24,16,24,24.80
2013,07,24,16,25,24.70
2013,07,24,16,26,24.20
2013,07,24,16,27,23.50
2013,07,24,16,28,22.80
2013,07,24,16,29,22.30
2013,07,24,16,30,21.90
2013,07,24,16,31,21.50
2013,07,24,16,32,21.20
2013,07,24,16,33,21.00
2013,07,24,16,34,20.90
2013,07,24,16,35,20.80
2013,07,24,16,36,20.80
2013,07,24,16,37,20.60
2013,07,24,16,38,20.50
2013,07,24,16,39,20.50
2013,07,24,16,40,20.70
2013,07,24,16,41,20.90
2013,07,24,16,42,21.00
2013,07,24,16,43,21.00
2013,07,24,16,44,21.00
2013,07,24,16,45,21.00
2013,07,24,16,46,21.00
2013,07,24,16,47,21.10
2013,07,24,16,48,21.40
2013,07,24,16,49,21.70
2013,07,24,16,50,22.00
2013,07,24,16,51,22.20
2013,07,24,16,52,22.40
2013,07,24,16,53,22.50
2013,07,24,16,54,22.50
2013,07,24,16,55,22.30
2013,07,24,16,56,22.30
2013,07,24,16,57,22.40
2013,07,24,16,58,22.40
2013,07,24,16,59,22.40
2013,07,24,17,00,22.40
2013,07,24,17,01,22.30
2013,07,24,17,02,22.20
2013,07,24,17,03,22.00
2013,07,24,17,04,21.60
2013,07,24,17,05,21.20
2013,07,24,17,06,20.60
2013,07,24,17,07,20.00
2013,07,24,17,08,19.50
2013,07,24,17,09,19.20
2013,07,24,17,10,18.90
2013,07,24,17,11,18.70
2013,07,24,17,12,18.50
2013,07,24,17,13,18.20
2013,07,24,17,14,18.00
2013,07,24,17,15,17.80
2013,07,24,17,16,17.70
2013,07,24,17,17,17.50
2013,07,24,17,18,17.40
2013,07,24,17,19,17.40